Terminal Aerodrome Forecast
Issued by NWS Dallas/Fort Worth, TX

Home | Current Version | Previous Version | Text Only | Print | Product List | Glossary On
Versions: 1 2 3 4 5 6 7 8 9 10 11 12 13 14 15 16 17 18 19 20 21 22 23 24 25 26
000
FTUS44 KFWD 170500
TAFDFW
TAF
KDFW 170529Z 1706/1812 14009KT P6SM BKN150
      TEMPO 1714/1717 BKN025
     FM171700 18006KT P6SM VCSH SCT040 BKN140
     FM180100 19005KT P6SM BKN150=

USA.gov is the U.S. government's official web portal to all federal, state and local government web resources and services.